STARLINK-35219

Last updated on Fri Dec 12 2025 00:02:05 GMT+0000 (Coordinated Universal Time)

1 66443U 25259X 25345.58335648 .00087676 00000+0 20861-2 0 9999 2 66443 43.0009 54.1405 0001005 283.8758 339.5851 15.40642964 5984
UTC large
Height (km)
Speed (km/s)
/
Latitude / Longitude
Inclination (degrees)
Orbital Period (minutes)
Azimuth
Elevation
Range (km)
Doppler Factor

Next 0 passes for location: London (51.5072 / 0.1276)

Sorry there are no passes over London.